| time (UTC) | temp F | wind direction | speed MPH | gust MPH | rain 1hr in | rain 24hr in | rain mn in | humidity % | barometer mb |
| 20260504214959 | 68 | 206 | 8.0 | 14.0 | 0.00 | 0.00 | 0.00 | 42 | 1000.9 |
| 20260504214453 | 67 | 196 | 8.0 | 18.0 | 0.00 | 0.00 | 0.00 | 42 | 1000.9 |
| 20260504213947 | 67 | 226 | 8.0 | 18.0 | 0.00 | 0.00 | 0.00 | 42 | 1001.0 |
| 20260504213441 | 67 | 245 | 9.0 | 18.0 | 0.00 | 0.00 | 0.00 | 42 | 1000.9 |
| 20260504213332 | 67 | 248 | 9.0 | 20.0 | 0.00 | 0.00 | 0.00 | 41 | 1001.0 |
| 20260504213327 | 67 | 219 | 10.0 | 20.0 | 0.00 | 0.00 | 0.00 | 42 | 1001.0 |
| 20260504211930 | 68 | 252 | 7.0 | 16.0 | 0.00 | 0.00 | 0.00 | 42 | 1001.1 |
| 20260504211431 | 68 | 225 | 8.0 | 19.0 | 0.00 | 0.00 | 0.00 | 43 | 1001.2 |
| 20260504210929 | 68 | 255 | 9.0 | 19.0 | 0.00 | 0.00 | 0.00 | 41 | 1001.2 |
| 20260504210429 | 68 | 215 | 9.0 | 18.0 | 0.00 | 0.00 | 0.00 | 41 | 1001.4 |
| 20260504205929 | 68 | 210 | 9.0 | 18.0 | 0.00 | 0.00 | 0.00 | 41 | 1001.5 |
| 20260504205432 | 68 | 233 | 8.0 | 15.0 | 0.00 | 0.00 | 0.00 | 41 | 1001.5 |
| 20260504204929 | 68 | 309 | 6.0 | 14.0 | 0.00 | 0.00 | 0.00 | 41 | 1001.5 |
| 20260504204430 | 67 | 201 | 7.0 | 14.0 | 0.00 | 0.00 | 0.00 | 43 | 1001.6 |
| 20260504203930 | 67 | 187 | 8.0 | 17.0 | 0.00 | 0.00 | 0.00 | 43 | 1001.6 |
| 20260504203430 | 67 | 252 | 8.0 | 19.0 | 0.00 | 0.00 | 0.00 | 42 | 1001.5 |
| 20260504202930 | 67 | 257 | 9.0 | 19.0 | 0.00 | 0.00 | 0.00 | 44 | 1001.7 |
| 20260504202727 | 67 | 245 | 9.0 | 21.0 | 0.00 | 0.00 | 0.00 | 42 | 1001.7 |
| 20260504201930 | 67 | 255 | 9.0 | 21.0 | 0.00 | 0.00 | 0.00 | 42 | 1001.7 |
| 20260504201430 | 67 | 215 | 9.0 | 19.0 | 0.00 | 0.00 | 0.00 | 42 | 1001.9 |
| 20260504200929 | 67 | 278 | 11.0 | 21.0 | 0.00 | 0.00 | 0.00 | 42 | 1001.9 |
| 20260504200431 | 67 | 214 | 11.0 | 24.0 | 0.00 | 0.00 | 0.00 | 42 | 1001.9 |
| 20260504195929 | 67 | 226 | 10.0 | 24.0 | 0.00 | 0.00 | 0.00 | 42 | 1001.9 |
| 20260504195726 | 67 | 204 | 9.0 | 17.0 | 0.00 | 0.00 | 0.00 | 41 | 1002.0 |
| 20260504194917 | 68 | 237 | 11.0 | 26.0 | 0.00 | 0.00 | 0.00 | 41 | 1002.0 |
| 20260504194411 | 67 | 203 | 11.0 | 26.0 | 0.00 | 0.00 | 0.00 | 43 | 1002.0 |
| 20260504193907 | 67 | 224 | 9.0 | 19.0 | 0.00 | 0.00 | 0.00 | 43 | 1002.0 |
| 20260504193407 | 67 | 233 | 9.0 | 19.0 | 0.00 | 0.00 | 0.00 | 44 | 1002.0 |
| 20260504192907 | 67 | 188 | 11.0 | 22.0 | 0.00 | 0.00 | 0.00 | 44 | 1002.1 |
| 20260504192407 | 67 | 231 | 10.0 | 22.0 | 0.00 | 0.00 | 0.00 | 43 | 1002.1 |
| 20260504191907 | 67 | 174 | 9.0 | 16.0 | 0.00 | 0.00 | 0.00 | 43 | 1002.0 |
| 20260504191407 | 66 | 195 | 10.0 | 18.0 | 0.00 | 0.00 | 0.00 | 43 | 1002.0 |
| 20260504190906 | 66 | 165 | 10.0 | 22.0 | 0.00 | 0.00 | 0.00 | 44 | 1002.2 |
| 20260504190406 | 67 | 200 | 11.0 | 22.0 | 0.00 | 0.00 | 0.00 | 42 | 1002.2 |
| 20260504185907 | 67 | 208 | 11.0 | 22.0 | 0.00 | 0.00 | 0.00 | 43 | 1002.2 |
| 20260504185407 | 67 | 223 | 10.0 | 22.0 | 0.00 | 0.00 | 0.00 | 43 | 1002.3 |
| 20260504184907 | 67 | 239 | 10.0 | 17.0 | 0.00 | 0.00 | 0.00 | 44 | 1002.3 |
| 20260504184703 | 67 | 234 | 10.0 | 19.0 | 0.00 | 0.00 | 0.00 | 43 | 1002.3 |
| 20260504183910 | 66 | 211 | 11.0 | 19.0 | 0.00 | 0.00 | 0.00 | 44 | 1002.3 |
| 20260504183409 | 66 | 210 | 11.0 | 20.0 | 0.00 | 0.00 | 0.00 | 44 | 1002.7 |
| 20260504182909 | 66 | 278 | 10.0 | 20.0 | 0.00 | 0.00 | 0.00 | 43 | 1002.6 |
| 20260504182410 | 66 | 217 | 10.0 | 20.0 | 0.00 | 0.00 | 0.00 | 44 | 1002.6 |
| 20260504181904 | 66 | 284 | 10.0 | 21.0 | 0.00 | 0.00 | 0.00 | 44 | 1002.5 |
| 20260504181658 | 65 | 229 | 10.0 | 21.0 | 0.00 | 0.00 | 0.00 | 46 | 1002.3 |
| 20260504181208 | 65 | 245 | 9.0 | 20.0 | 0.00 | 0.00 | 0.00 | 44 | 1002.6 |
| 20260504180402 | 65 | 226 | 9.0 | 18.0 | 0.00 | 0.00 | 0.00 | 46 | 1002.6 |
| 20260504175901 | 65 | 222 | 11.0 | 23.0 | 0.00 | 0.00 | 0.00 | 45 | 1002.7 |
| 20260504175513 | 65 | 226 | 10.0 | 19.0 | 0.00 | 0.00 | 0.00 | 45 | 1002.7 |
| 20260504175450 | 65 | 243 | 11.0 | 23.0 | 0.00 | 0.00 | 0.00 | 44 | 1002.6 |
| 20260504174703 | 65 | 217 | 11.0 | 24.0 | 0.00 | 0.00 | 0.00 | 44 | 1002.8 |
| 20260504173902 | 64 | 145 | 11.0 | 24.0 | 0.00 | 0.00 | 0.00 | 45 | 1002.7 |
| 20260504173402 | 64 | 259 | 9.0 | 22.0 | 0.00 | 0.00 | 0.00 | 45 | 1003.0 |
| 20260504172902 | 64 | 250 | 10.0 | 20.0 | 0.00 | 0.00 | 0.00 | 47 | 1002.9 |
| 20260504172401 | 64 | 271 | 10.0 | 23.0 | 0.00 | 0.00 | 0.00 | 44 | 1002.9 |
| 20260504171901 | 63 | 245 | 10.0 | 23.0 | 0.00 | 0.00 | 0.00 | 45 | 1003.0 |
| 20260504171402 | 63 | 239 | 11.0 | 23.0 | 0.00 | 0.00 | 0.00 | 47 | 1003.1 |
| 20260504171004 | 63 | 225 | 10.0 | 25.0 | 0.00 | 0.00 | 0.00 | 47 | 1003.2 |
| 20260504170943 | 63 | 175 | 11.0 | 25.0 | 0.00 | 0.00 | 0.00 | 45 | 1003.2 |
| 20260504160401 | 60 | 265 | 9.0 | 20.0 | 0.00 | 0.00 | 0.00 | 47 | 1003.8 |
| 20260504160201 | 60 | 193 | 7.0 | 18.0 | 0.00 | 0.00 | 0.00 | 47 | 1003.9 |
| 20260504150902 | 58 | 211 | 9.0 | 17.0 | 0.00 | 0.00 | 0.00 | 48 | 1004.3 |
| 20260504150403 | 58 | 198 | 7.0 | 17.0 | 0.00 | 0.00 | 0.00 | 47 | 1004.3 |
| 20260504140901 | 56 | 215 | 7.0 | 14.0 | 0.00 | 0.00 | 0.00 | 51 | 1004.7 |
| 20260504140402 | 55 | 225 | 7.0 | 14.0 | 0.00 | 0.00 | 0.00 | 50 | 1004.7 |
| 20260504130357 | 52 | 215 | 5.0 | 10.0 | 0.00 | 0.00 | 0.00 | 59 | 1005.0 |
| 20260504110318 | 42 | 203 | 4.0 | 9.0 | 0.00 | 0.00 | 0.00 | 70 | 1005.2 |
| 20260504100250 | 38 | 220 | 3.0 | 6.0 | 0.00 | 0.00 | 0.00 | 75 | 1005.0 |
| 20260504081243 | 39 | 201 | 4.0 | 8.0 | 0.00 | 0.00 | 0.00 | 73 | 1005.3 |
| 20260504080738 | 39 | 221 | 4.0 | 9.0 | 0.00 | 0.00 | 0.00 | 73 | 1005.2 |
| 20260504080239 | 39 | 206 | 3.0 | 9.0 | 0.00 | 0.00 | 0.00 | 73 | 1005.3 |
| 20260504070231 | 40 | 233 | 4.0 | 9.0 | 0.00 | 0.00 | 0.00 | 72 | 1005.2 |
| 20260504060203 | 43 | 155 | 2.0 | 6.0 | 0.00 | 0.00 | 0.00 | 64 | 1004.9 |
| 20260504050704 | 45 | 219 | 5.0 | 10.0 | 0.00 | 0.00 | 0.00 | 58 | 1004.7 |
| 20260504050204 | 45 | 234 | 5.0 | 9.0 | 0.00 | 0.00 | 0.00 | 58 | 1004.8 |
| 20260504045703 | 45 | 206 | 4.0 | 9.0 | 0.00 | 0.00 | 0.00 | 58 | 1004.9 |
| 20260504045204 | 45 | 228 | 4.0 | 9.0 | 0.00 | 0.00 | 0.00 | 58 | 1004.9 |
| 20260504044702 | 45 | 212 | 4.0 | 9.0 | 0.00 | 0.00 | 0.00 | 58 | 1004.8 |
| 20260504044202 | 45 | 240 | 4.0 | 8.0 | 0.00 | 0.00 | 0.00 | 58 | 1004.9 |
| 20260504043702 | 45 | 255 | 4.0 | 8.0 | 0.00 | 0.00 | 0.00 | 58 | 1004.8 |
| 20260504043202 | 45 | 240 | 4.0 | 9.0 | 0.00 | 0.00 | 0.00 | 58 | 1004.8 |
| 20260504042701 | 45 | 202 | 4.0 | 9.0 | 0.00 | 0.00 | 0.00 | 58 | 1004.8 |
| 20260504042203 | 45 | 243 | 4.0 | 8.0 | 0.00 | 0.00 | 0.00 | 58 | 1004.7 |
| 20260504041701 | 45 | 215 | 4.0 | 7.0 | 0.00 | 0.00 | 0.00 | 58 | 1004.7 |
| 20260504041201 | 45 | 221 | 3.0 | 7.0 | 0.00 | 0.00 | 0.00 | 58 | 1004.8 |
| 20260504040706 | 45 | 193 | 3.0 | 7.0 | 0.00 | 0.00 | 0.00 | 59 | 1004.7 |
| 20260504040202 | 45 | 252 | 4.0 | 7.0 | 0.00 | 0.00 | 0.00 | 58 | 1004.8 |
| 20260504035706 | 45 | 231 | 3.0 | 6.0 | 0.00 | 0.00 | 0.00 | 58 | 1004.7 |
| 20260504035204 | 45 | 243 | 3.0 | 6.0 | 0.00 | 0.00 | 0.00 | 59 | 1004.7 |
| 20260504034705 | 45 | 220 | 4.0 | 9.0 | 0.00 | 0.00 | 0.00 | 57 | 1004.8 |
| 20260504034204 | 45 | 215 | 3.0 | 9.0 | 0.00 | 0.00 | 0.00 | 58 | 1004.7 |
| 20260504033704 | 46 | 236 | 3.0 | 10.0 | 0.00 | 0.00 | 0.00 | 57 | 1004.7 |
| 20260504033508 | 46 | 236 | 3.0 | 10.0 | 0.00 | 0.00 | 0.00 | 57 | 1004.6 |
| 20260504032703 | 46 | 227 | 3.0 | 7.0 | 0.00 | 0.00 | 0.00 | 57 | 1004.7 |
| 20260504032204 | 46 | 219 | 3.0 | 7.0 | 0.00 | 0.00 | 0.00 | 56 | 1004.7 |
| 20260504032013 | 46 | 220 | 4.0 | 8.0 | 0.00 | 0.00 | 0.00 | 56 | 1004.7 |
| 20260504031205 | 46 | 223 | 4.0 | 8.0 | 0.00 | 0.00 | 0.00 | 55 | 1004.7 |
| 20260504030704 | 46 | 152 | 4.0 | 7.0 | 0.00 | 0.00 | 0.00 | 56 | 1004.6 |
| 20260504030203 | 46 | 231 | 4.0 | 7.0 | 0.00 | 0.00 | 0.00 | 56 | 1004.7 |
| 20260504025704 | 46 | 238 | 4.0 | 10.0 | 0.00 | 0.00 | 0.00 | 56 | 1004.7 |
| 20260504025203 | 46 | 248 | 4.0 | 10.0 | 0.00 | 0.00 | 0.00 | 57 | 1004.6 |
| 20260504024705 | 46 | 252 | 4.0 | 9.0 | 0.00 | 0.00 | 0.00 | 57 | 1004.6 |
| 20260504024206 | 45 | 223 | 4.0 | 9.0 | 0.00 | 0.00 | 0.00 | 57 | 1004.6 |
| 20260504023704 | 45 | 226 | 4.0 | 8.0 | 0.00 | 0.00 | 0.00 | 59 | 1004.7 |
| 20260504023203 | 45 | 230 | 3.0 | 8.0 | 0.00 | 0.00 | 0.00 | 58 | 1004.7 |
| 20260504022704 | 45 | 229 | 3.0 | 7.0 | 0.00 | 0.00 | 0.00 | 59 | 1004.7 |
| 20260504022204 | 45 | 240 | 3.0 | 7.0 | 0.00 | 0.00 | 0.00 | 59 | 1004.7 |
| 20260504021704 | 45 | 226 | 3.0 | 7.0 | 0.00 | 0.00 | 0.00 | 60 | 1004.7 |
| 20260504021205 | 44 | 283 | 3.0 | 7.0 | 0.00 | 0.00 | 0.00 | 60 | 1004.7 |
| 20260504020818 | 44 | 190 | 3.0 | 7.0 | 0.00 | 0.00 | 0.00 | 62 | 1004.8 |
| 20260504020750 | 44 | 223 | 3.0 | 6.0 | 0.00 | 0.00 | 0.00 | 61 | 1004.7 |
| 20260504020009 | 44 | 223 | 3.0 | 7.0 | 0.00 | 0.00 | 0.00 | 63 | 1004.7 |
| 20260504015203 | 43 | 226 | 3.0 | 7.0 | 0.00 | 0.00 | 0.00 | 63 | 1004.6 |
| 20260504014702 | 43 | 226 | 2.0 | 7.0 | 0.00 | 0.00 | 0.00 | 64 | 1004.6 |
| 20260504014203 | 43 | 190 | 2.0 | 4.0 | 0.00 | 0.00 | 0.00 | 66 | 1004.6 |
| 20260504013703 | 43 | 238 | 2.0 | 5.0 | 0.00 | 0.00 | 0.00 | 66 | 1004.4 |
| 20260504013322 | 44 | 258 | 2.0 | 7.0 | 0.00 | 0.00 | 0.00 | 65 | 1004.4 |
| 20260504013256 | 43 | 206 | 2.0 | 7.0 | 0.00 | 0.00 | 0.00 | 65 | 1004.3 |
| 20260504012311 | 44 | 259 | 2.0 | 3.0 | 0.00 | 0.00 | 0.00 | 65 | 1004.4 |
| 20260504012249 | 44 | 283 | 2.0 | 5.0 | 0.00 | 0.00 | 0.00 | 66 | 1004.9 |
| 20260504011201 | 44 | 236 | 2.0 | 3.0 | 0.00 | 0.00 | 0.00 | 63 | 1004.4 |
| 20260504010701 | 45 | 253 | 2.0 | 4.0 | 0.00 | 0.00 | 0.00 | 64 | 1004.4 |
| 20260504010203 | 45 | 238 | 2.0 | 4.0 | 0.00 | 0.00 | 0.00 | 61 | 1004.3 |
| 20260504005701 | 46 | 226 | 2.0 | 4.0 | 0.00 | 0.00 | 0.00 | 60 | 1004.2 |
| 20260504005202 | 46 | 269 | 2.0 | 3.0 | 0.00 | 0.00 | 0.00 | 59 | 1004.3 |
| 20260504004702 | 47 | 234 | 2.0 | 4.0 | 0.00 | 0.00 | 0.00 | 58 | 1004.2 |
| 20260504004203 | 47 | 253 | 1.0 | 4.0 | 0.00 | 0.00 | 0.00 | 57 | 1004.3 |
| 20260504003700 | 48 | 258 | 1.0 | 2.0 | 0.00 | 0.00 | 0.00 | 56 | 1004.2 |
| 20260504003508 | 48 | 222 | 1.0 | 4.0 | 0.00 | 0.00 | 0.00 | 54 | 1004.1 |
| 20260504002701 | 49 | 223 | 2.0 | 4.0 | 0.00 | 0.00 | 0.00 | 54 | 1004.1 |
| 20260504002201 | 49 | 178 | 2.0 | 4.0 | 0.00 | 0.00 | 0.00 | 52 | 1003.9 |
| 20260504001700 | 49 | 202 | 2.0 | 4.0 | 0.00 | 0.00 | 0.00 | 52 | 1004.0 |
| 20260504001200 | 50 | 223 | 2.0 | 3.0 | 0.00 | 0.00 | 0.00 | 52 | 1003.9 |
| 20260504000701 | 50 | 202 | 3.0 | 7.0 | 0.00 | 0.00 | 0.00 | 51 | 1003.9 |
| 20260504000609 | 50 | 245 | 4.0 | 10.0 | 0.00 | 0.00 | 0.00 | 50 | 1003.8 |
| 20260504000602 | 50 | 223 | 4.0 | 10.0 | 0.00 | 0.00 | 0.00 | 51 | 1003.9 |
| 20260503235456 | 50 | 238 | 4.0 | 8.0 | 0.00 | 0.00 | 0.00 | 50 | 1003.9 |
| 20260503234700 | 50 | 227 | 4.0 | 8.0 | 0.00 | 0.00 | 0.00 | 50 | 1003.8 |
| 20260503234202 | 50 | 231 | 4.0 | 9.0 | 0.00 | 0.00 | 0.00 | 49 | 1003.7 |
| 20260503233701 | 51 | 252 | 4.0 | 9.0 | 0.00 | 0.00 | 0.00 | 49 | 1003.8 |
| 20260503233501 | 51 | 277 | 4.0 | 10.0 | 0.00 | 0.00 | 0.00 | 49 | 1003.8 |
| 20260503232701 | 51 | 264 | 4.0 | 10.0 | 0.00 | 0.00 | 0.00 | 49 | 1003.7 |
| 20260503232203 | 51 | 243 | 3.0 | 10.0 | 0.00 | 0.00 | 0.00 | 49 | 1003.7 |
| 20260503231701 | 51 | 324 | 4.0 | 10.0 | 0.00 | 0.00 | 0.00 | 49 | 1003.7 |
| 20260503231202 | 51 | 269 | 3.0 | 10.0 | 0.00 | 0.00 | 0.00 | 48 | 1003.7 |
| 20260503230701 | 51 | 228 | 2.0 | 8.0 | 0.00 | 0.00 | 0.00 | 49 | 1003.7 |
| 20260503230414 | 52 | 274 | 5.0 | 12.0 | 0.00 | 0.00 | 0.00 | 48 | 1003.7 |
| 20260503230336 | 51 | 258 | 3.0 | 9.0 | 0.00 | 0.00 | 0.00 | 48 | 1003.7 |
| 20260503230100 | 51 | 269 | 5.0 | 9.0 | 0.00 | 0.00 | 0.00 | 49 | 1003.7 |
| 20260503225008 | 52 | 307 | 5.0 | 12.0 | 0.00 | 0.00 | 0.00 | 47 | 1003.7 |
| 20260503224201 | 52 | 260 | 4.0 | 10.0 | 0.00 | 0.00 | 0.00 | 47 | 1003.7 |
| 20260503223700 | 52 | 226 | 4.0 | 10.0 | 0.00 | 0.00 | 0.00 | 48 | 1003.6 |
| 20260503223201 | 52 | 274 | 4.0 | 10.0 | 0.00 | 0.00 | 0.00 | 47 | 1003.7 |
| 20260503222702 | 52 | 257 | 5.0 | 11.0 | 0.00 | 0.00 | 0.00 | 48 | 1003.7 |
| 20260503222202 | 52 | 276 | 6.0 | 14.0 | 0.00 | 0.00 | 0.00 | 48 | 1003.8 |
| 20260503221701 | 52 | 238 | 7.0 | 14.0 | 0.00 | 0.00 | 0.00 | 47 | 1003.7 |
| 20260503221159 | 52 | 308 | 6.0 | 14.0 | 0.00 | 0.00 | 0.00 | 46 | 1003.8 |
| 20260503220653 | 52 | 276 | 6.0 | 15.0 | 0.00 | 0.00 | 0.00 | 46 | 1003.7 |
| 20260503220147 | 52 | 231 | 6.0 | 15.0 | 0.00 | 0.00 | 0.00 | 46 | 1003.7 |
| 20260503215641 | 52 | 257 | 7.0 | 18.0 | 0.00 | 0.00 | 0.00 | 48 | 1003.7 |